Location: Chisholm
(54.9102°N, 114.1701°W)
Time: 09:48:06
(UTC+00:00)

N. Korean satellite - Pass Details

Date: 06 December 2021
Orbit: 447 x 491 km, 97.3° (Epoch: 23 January)

Event Time Altitude Azimuth Distance (km) Brightness Sun altitude
Rises 23:55:05 0° 170° (S) 2,516 10.5 -6.0°
Reaches altitude 10° 23:57:09 10° 172° (S) 1,634 9.6 -6.3°
Maximum altitude 00:00:39 71° 256° (WSW) 501 6.9 -6.7°
Drops below altitude 10° 00:04:07 10° 342° (NNW) 1,622 9.1 -7.2°
Sets 00:06:10 0° 345° (NNW) 2,494 10.0 -7.4°
